[[{"header":{"parameterUnit":"m.s-1","parameterCategory":1,"la1":30.2991,"la2":30.254,"lo1":-89.0895,"lo2":-89.0444,"dy":0.0017,"dx":0.0017,"nx":28,"ny":28,"refTime":"2026-01-05T03:00:00:Z","depth":0,"parameterNumber":2,"parameterNumberName":"U-component_of_WINDS"},"data":[0,0,0,0,0,0,0,0,0,0,0,0,0,0,0,0,0,0,0,0,0,0,0,0,0,0,0,0,0,0,0,0,0,0,0,0,0,0,0,0,0,0,0,0,0,0,0,0,0,0,0,0,0,0,0,0,0,0,-0.3183,-0.3183,0,-0.3254,-0.3255,-0.3256,-0.3257,-0.3256,-0.3255,-0.3254,-0.3331,-0.3334,-0.3337,0,0,0,0,0,0,0,0,0,0,0,0,0,-0.3052,-0.3055,-0.3183,-0.3184,-0.3184,-0.3254,-0.3255,-0.3256,-0.3257,-0.3256,-0.3254,-0.3253,-0.333,-0.3333,-0.3337,0,0,0,0,0,0,0,0,0,0,0,0,0,-0.3115,-0.3055,-0.3183,-0.3193,-0.3195,-0.3254,-0.3255,-0.3256,-0.3257,-0.3256,-0.3254,-0.3253,-0.3329,-0.3333,-0.3337,-0.3392,0,0,-0.3351,-0.3352,0,0,0,0,0,0,0,0,-0.3111,-0.312,-0.3191,-0.3192,-0.3194,-0.3245,-0.3237,-0.3302,-0.3257,-0.3233,-0.3254,-0.3252,-0.3304,-0.331,-0.3327,-0.3395,-0.3399,-0.3351,-0.3354,-0.3355,-0.3357,0,0,0,0,0,0,0,-0.3107,-0.3117,-0.3211,-0.3192,-0.3194,-0.3196,-0.3203,-0.325,-0.3276,-0.3235,-0.3236,-0.3244,-0.3304,-0.3322,-0.3328,-0.34,-0.3351,-0.3355,-0.3357,-0.3359,-0.3522,-0.3523,0,0,0,0,0,0,-0.31,-0.3113,-0.3209,-0.3213,-0.3149,-0.32,-0.3208,-0.323,-0.3275,-0.328,-0.3245,-0.3244,-0.3316,-0.3323,-0.3331,-0.3401,-0.3355,-0.336,-0.3362,-0.352,-0.3522,-0.3524,0,0,0,0,0,0,-0.3097,-0.3108,-0.3206,-0.3163,-0.3176,-0.3203,-0.3228,-0.3232,-0.325,-0.3282,-0.3287,-0.3258,-0.3315,-0.3325,-0.3377,-0.3403,-0.3362,-0.3365,-0.3518,-0.3521,-0.3523,-0.3539,0,0,0,0,0,0,-0.3093,-0.3107,-0.3127,-0.3164,-0.3178,-0.3249,-0.323,-0.3235,-0.3257,-0.3256,-0.3296,-0.3301,-0.3314,-0.3371,-0.3382,-0.3409,-0.3369,-0.3516,-0.3519,-0.3522,-0.3536,-0.3542,-0.3547,0,0,0,0,0,-0.3089,-0.3129,-0.3128,-0.3139,-0.3203,-0.3251,-0.3259,-0.3273,-0.3259,-0.3281,-0.3302,-0.33,-0.3398,-0.3376,-0.3389,-0.3417,-0.3514,-0.3518,-0.3522,-0.3534,-0.3541,-0.3546,0,0,0,0,0,0,-0.3095,-0.3133,-0.3133,-0.3186,-0.3215,-0.3251,-0.3278,-0.3279,-0.3313,-0.3311,-0.3327,-0.3336,-0.3389,-0.3408,-0.3383,-0.3475,-0.3455,-0.3462,-0.346,-0.3467,-0.3472,-0.3467,-0.3373,0,0,0,0,0,-0.3102,-0.3136,-0.3169,-0.3212,-0.3227,-0.325,-0.3271,-0.3279,-0.331,-0.3323,-0.3348,-0.338,-0.3419,-0.3443,-0.348,-0.3539,-0.355,-0.3565,-0.357,-0.3574,-0.358,-0.3616,-0.3625,-0.3537,-0.3537,-0.3536,0,0,-0.3118,-0.3143,-0.3164,-0.3214,-0.3238,-0.3275,-0.326,-0.3299,-0.3328,-0.3329,-0.3381,-0.3401,-0.3438,-0.3494,-0.3521,-0.3512,-0.3607,-0.3579,-0.3582,-0.3586,-0.3621,-0.3629,-0.3637,-0.3539,-0.3539,-0.3538,0,0,-0.3166,-0.3187,-0.3227,-0.3251,-0.3287,-0.3303,-0.3312,-0.3349,-0.3362,-0.3414,-0.3416,-0.3452,-0.3517,-0.3544,-0.3566,-0.3628,-0.3629,-0.364,-0.3667,-0.3702,-0.3709,-0.3715,-0.374,-0.3749,-0.3645,-0.3645,-0.3645,0,-0.3181,-0.3236,-0.3248,-0.3288,-0.3312,-0.3314,-0.3357,-0.338,-0.3427,-0.3444,-0.3433,-0.3517,-0.3542,-0.3607,-0.3622,-0.3639,-0.3653,-0.3636,-0.3706,-0.3713,-0.3719,-0.3743,-0.3752,-0.3646,-0.3646,-0.3646,-0.3646,0,-0.3255,-0.3293,-0.3321,-0.3366,-0.3393,-0.3434,-0.3454,-0.348,-0.3486,-0.3504,-0.3559,-0.3589,-0.3634,-0.3649,-0.3655,-0.3716,-0.371,-0.3703,-0.3684,-0.3729,-0.3752,-0.3761,-0.3648,-0.3648,-0.3647,-0.3647,0,0,-0.3308,-0.336,-0.3371,-0.3393,-0.3433,-0.3464,-0.3507,-0.355,-0.3574,-0.3606,-0.3645,-0.3701,-0.3695,-0.3721,-0.373,-0.3761,-0.3812,-0.375,-0.3751,-0.3763,-0.3885,-0.3892,-0.3902,-0.3812,-0.3814,-0.3816,-0.3883,0,-0.3362,-0.3437,-0.345,-0.3516,-0.3554,-0.3558,-0.3596,-0.3626,-0.3644,-0.3681,-0.3701,-0.3742,-0.3729,-0.3745,-0.3776,-0.3799,-0.3837,-0.3794,-0.3851,-0.3853,-0.3844,-0.3914,-0.3921,-0.3982,-0.3892,-0.3893,-0.3894,0,-0.3435,-0.347,-0.354,-0.3579,-0.3595,-0.3628,-0.3671,-0.3704,-0.3741,-0.3752,-0.3782,-0.3789,-0.3836,-0.3814,-0.3882,-0.3853,-0.3877,-0.3892,-0.3895,-0.3903,-0.3878,-0.3926,-0.4002,-0.4013,-0.3908,-0.3907,-0.3906,0,-0.3471,-0.3535,-0.3586,-0.3604,-0.365,-0.3674,-0.3695,-0.3729,-0.3755,-0.3793,-0.3811,-0.3854,-0.3878,-0.3912,-0.3932,-0.3913,-0.3999,-0.3978,-0.4012,-0.4012,-0.4031,-0.403,-0.4116,-0.4043,-0.4043,-0.4043,-0.4043,0,-0.3532,-0.3575,-0.3603,-0.3634,-0.3684,-0.37,-0.375,-0.377,-0.3802,-0.3839,-0.3845,-0.3881,-0.3903,-0.3943,-0.3959,-0.4015,-0.4025,-0.4037,-0.4041,-0.4038,-0.4037,-0.4056,-0.4053,-0.4045,-0.4045,-0.4044,-0.4044,0,-0.358,-0.36,-0.3656,-0.3696,-0.3707,-0.3742,-0.3777,-0.3809,-0.3828,-0.3875,-0.3888,-0.3918,-0.3965,-0.3987,-0.4046,-0.4057,-0.4121,-0.4121,-0.4109,-0.4111,-0.4145,-0.4143,-0.4247,-0.4263,-0.4178,-0.4178,-0.4179,0,-0.3618,-0.3652,-0.3695,-0.372,-0.3742,-0.3782,-0.3809,-0.3827,-0.3855,-0.3901,-0.3929,-0.3976,-0.4015,-0.4091,-0.4119,-0.4165,-0.4168,-0.4201,-0.4175,-0.4172,-0.4172,-0.4171,-0.4176,-0.4207,-0.4208,-0.4208,-0.4209,0,-0.3686,-0.3695,-0.3732,-0.3775,-0.3807,-0.3841,-0.3875,-0.3896,-0.392,-0.3952,-0.4001,-0.4031,-0.4092,-0.414,-0.4188,-0.4212,-0.4216,-0.4217,-0.4228,-0.4226,-0.4219,-0.4226,-0.4124,-0.4215,-0.4214,-0.4214,-0.4213,-0.4213,-0.3732,-0.3763,-0.38,-0.3843,-0.387,-0.3903,-0.3936,-0.3959,-0.3999,-0.4049,-0.4058,-0.411,-0.4149,-0.4214,-0.424,-0.4283,-0.4275,-0.429,-0.4295,-0.4299,-0.4302,-0.421,-0.4291,-0.4291,-0.4291,-0.4291,-0.4291,0,-0.3802,-0.3826,-0.3865,-0.3913,-0.3948,-0.3947,-0.3986,-0.4016,-0.4061,-0.4096,-0.4135,-0.4192,-0.424,-0.4273,-0.4322,-0.435,-0.4353,-0.4363,-0.4362,-0.4368,-0.4304,-0.4291,-0.4359,-0.4359,-0.4359,-0.4359,-0.4359,-0.4359,-0.3843,-0.3897,-0.391,-0.3979,-0.4003,-0.4054,-0.4076,-0.4108,-0.4136,-0.42,-0.4239,-0.426,-0.4295,-0.4347,-0.4392,-0.4401,-0.442,-0.443,-0.4439,-0.4379,-0.4372,-0.4365,-0.4353,-0.4433,-0.4433,-0.4499,-0.45,-0.45]},{"header":{"parameterUnit":"m.s-1","parameterCategory":1,"la1":30.2991,"la2":30.254,"lo1":-89.0895,"lo2":-89.0444,"dy":0.0017,"dx":0.0017,"nx":28,"ny":28,"refTime":"2026-01-05T03:00:00:Z","depth":0,"parameterNumber":3,"parameterNumberName":"V-component_of_WINDS"},"data":[0,0,0,0,0,0,0,0,0,0,0,0,0,0,0,0,0,0,0,0,0,0,0,0,0,0,0,0,0,0,0,0,0,0,0,0,0,0,0,0,0,0,0,0,0,0,0,0,0,0,0,0,0,0,0,0,0,0,0.1583,0.1583,0,0.1584,0.1584,0.1584,0.1626,0.1627,0.1628,0.1629,0.1626,0.1625,0.1624,0,0,0,0,0,0,0,0,0,0,0,0,0,0.1614,0.1614,0.1583,0.1583,0.1583,0.1584,0.1584,0.1584,0.1626,0.1627,0.1629,0.163,0.1627,0.1625,0.1624,0,0,0,0,0,0,0,0,0,0,0,0,0,0.1606,0.1613,0.1583,0.1604,0.1606,0.1584,0.1584,0.1584,0.1626,0.1627,0.1629,0.163,0.1627,0.1625,0.1624,0.158,0,0,0.1619,0.1618,0,0,0,0,0,0,0,0,0.1607,0.1605,0.1601,0.1603,0.1605,0.1607,0.1594,0.1582,0.1625,0.1618,0.1629,0.1631,0.1618,0.1617,0.1614,0.158,0.158,0.1618,0.1617,0.1617,0.1616,0,0,0,0,0,0,0,0.1607,0.1605,0.1583,0.1601,0.1603,0.1612,0.1613,0.1592,0.1608,0.1619,0.1622,0.1622,0.1619,0.1615,0.1614,0.1579,0.1618,0.1617,0.1616,0.1615,0.1508,0.1506,0,0,0,0,0,0,0.1605,0.1606,0.1583,0.1583,0.161,0.1611,0.1611,0.1604,0.1609,0.1611,0.162,0.1624,0.1617,0.1616,0.1614,0.1561,0.1617,0.1615,0.1614,0.151,0.1507,0.1505,0,0,0,0,0,0,0.1606,0.1603,0.1583,0.1595,0.1593,0.1608,0.16,0.1603,0.1599,0.161,0.1613,0.1613,0.1618,0.1616,0.1588,0.1562,0.1614,0.1613,0.1512,0.1509,0.1506,0.1456,0,0,0,0,0,0,0.1607,0.1603,0.1587,0.1595,0.1593,0.1558,0.1598,0.1602,0.1596,0.1601,0.1604,0.1606,0.162,0.159,0.1586,0.156,0.1612,0.1514,0.151,0.1507,0.146,0.1452,0.1445,0,0,0,0,0,0.1608,0.1572,0.1586,0.1583,0.1573,0.1556,0.1555,0.1572,0.1594,0.1578,0.1585,0.1606,0.1566,0.1587,0.1583,0.1556,0.1516,0.1511,0.1507,0.1463,0.1453,0.1445,0,0,0,0,0,0,0.156,0.1574,0.1589,0.1556,0.1555,0.1563,0.1543,0.1562,0.1553,0.1558,0.1579,0.1579,0.1547,0.1549,0.1572,0.1513,0.1544,0.1539,0.1512,0.1503,0.1495,0.1494,0.161,0,0,0,0,0,0.1546,0.1533,0.1545,0.1514,0.1513,0.1528,0.1521,0.1535,0.1534,0.1534,0.1539,0.1536,0.1523,0.1513,0.1502,0.1461,0.1461,0.1441,0.1433,0.1427,0.1421,0.1398,0.1388,0.1492,0.1492,0.1492,0,0,0.1516,0.1522,0.1512,0.1504,0.1505,0.1489,0.1527,0.1509,0.1496,0.153,0.1503,0.1507,0.1506,0.147,0.1455,0.1471,0.1393,0.1422,0.1416,0.1414,0.1393,0.1383,0.1374,0.1489,0.1489,0.149,0,0,0.1453,0.1457,0.1431,0.1431,0.1433,0.1443,0.1437,0.1443,0.1447,0.1421,0.1446,0.1431,0.1408,0.1406,0.1401,0.1337,0.1355,0.1333,0.1292,0.1269,0.1261,0.1254,0.1229,0.122,0.1328,0.1328,0.1328,0,0.1415,0.1393,0.1415,0.1395,0.139,0.1422,0.1394,0.1393,0.139,0.1385,0.1404,0.1375,0.1377,0.134,0.1325,0.1321,0.1313,0.1332,0.1261,0.1254,0.1248,0.1224,0.1215,0.1325,0.1325,0.1326,0.1326,0,0.1345,0.133,0.1308,0.1305,0.1298,0.1274,0.1291,0.1282,0.1296,0.1304,0.1276,0.1279,0.1268,0.1261,0.1275,0.1227,0.1236,0.1258,0.1289,0.1234,0.1212,0.1204,0.1321,0.1322,0.1323,0.1324,0,0,0.125,0.1261,0.1252,0.1251,0.1255,0.1242,0.1219,0.121,0.12,0.1197,0.1177,0.1157,0.1177,0.1172,0.1186,0.1166,0.1112,0.119,0.119,0.1173,0.1056,0.1038,0.1027,0.1126,0.1124,0.1123,0.1056,0,0.1187,0.115,0.1169,0.1128,0.1113,0.1143,0.1123,0.1122,0.113,0.1116,0.1124,0.1109,0.1137,0.1134,0.1116,0.1123,0.1089,0.1128,0.1105,0.1104,0.1101,0.1016,0.0997,0.0933,0.1047,0.1046,0.1045,0,0.1108,0.1103,0.1061,0.1067,0.1061,0.1043,0.1035,0.1023,0.1022,0.1029,0.1023,0.1042,0.1018,0.1052,0.1018,0.1045,0.1037,0.1038,0.1036,0.1032,0.1069,0.1007,0.0914,0.0903,0.1032,0.1033,0.1034,0,0.104,0.1022,0.0994,0.0993,0.1,0.0986,0.0988,0.0989,0.0982,0.0975,0.097,0.096,0.0954,0.0945,0.096,0.0983,0.0924,0.0959,0.0926,0.0925,0.091,0.091,0.0811,0.0909,0.0909,0.0909,0.091,0,0.0966,0.0938,0.0964,0.0946,0.0916,0.0938,0.0907,0.0912,0.0913,0.0896,0.0922,0.0905,0.0927,0.0912,0.0923,0.0893,0.089,0.0893,0.0896,0.0889,0.0889,0.0882,0.0886,0.0907,0.0908,0.0908,0.0908,0,0.0883,0.09,0.0871,0.088,0.0882,0.0859,0.0866,0.085,0.0859,0.0837,0.0833,0.0848,0.0831,0.0846,0.083,0.0837,0.0796,0.0806,0.0796,0.0798,0.0763,0.0765,0.0654,0.0639,0.075,0.0749,0.0748,0,0.0834,0.0813,0.0821,0.0812,0.0812,0.0798,0.0791,0.0812,0.0803,0.0801,0.0784,0.077,0.076,0.0732,0.074,0.0727,0.0736,0.0698,0.0734,0.0727,0.0732,0.0732,0.0729,0.0689,0.0688,0.0687,0.0686,0,0.0743,0.0752,0.0741,0.0733,0.0724,0.0718,0.0715,0.0706,0.0727,0.0716,0.07,0.0692,0.0676,0.0661,0.0651,0.0652,0.0671,0.0675,0.0666,0.0658,0.0651,0.0652,0.0773,0.0677,0.0678,0.0678,0.0679,0.0679,0.0673,0.0656,0.0658,0.0645,0.0645,0.0641,0.0625,0.0633,0.0621,0.061,0.0624,0.0603,0.0603,0.0592,0.059,0.0573,0.0589,0.0577,0.0573,0.0569,0.0563,0.0657,0.0572,0.0572,0.0573,0.0573,0.0573,0,0.0581,0.0585,0.0573,0.0567,0.0556,0.0578,0.0575,0.0564,0.0546,0.0545,0.0535,0.0515,0.0501,0.0508,0.0495,0.0481,0.0489,0.0476,0.0476,0.0475,0.0551,0.0559,0.0469,0.0469,0.0469,0.0469,0.0469,0.0469,0.0532,0.0503,0.0512,0.0483,0.0487,0.0468,0.0464,0.046,0.0458,0.0436,0.0425,0.043,0.0432,0.0419,0.0406,0.0409,0.0402,0.0385,0.039,0.046,0.047,0.048,0.0487,0.0384,0.0384,0.0315,0.0314,0.0314]}]]